El Centro, CA

3:35 PM PDT on May 26, 2018 (GMT -0700)
El Centro Naval Air Facility

Weather History for KNJK - February, 2012

Change the Weather History Date:

Saturday, February 18, 2012

  Actual Average Record
Temperature  
Mean Temperature 53 °F -  
Max Temperature 71 °F 69 °F 84 °F (2014)
Min Temperature 35 °F 47 °F 35 °F (2012)
Degree Days  
Heating Degree Days 12    
Growing Degree Days 3 (Base 50)    
Moisture  
Dew Point 41 °F    
Average Humidity 70    
Maximum Humidity 100    
Minimum Humidity 39    
Precipitation  
Precipitation 0.00 in - - ()
Sea Level Pressure  
Sea Level Pressure 30.08 in    
Wind  
Wind Speed 4 mph (SSE)    
Max Wind Speed 26 mph    
Max Gust Speed 34 mph    
Visibility 8 miles    
Events Fog    
Averages and records for this station are not official NWS values.
T = Trace of Precipitation, MM = Missing Value Source: NWS Daily Summary

Daily Weather History Graph

Daily Weather History Graph

Search for Another Location

Airport or City:

Astronomy

Feb. 18, 2012 Rise Set
Actual Time 6:23 AM PST 5:30 PM PST
Civil Twilight 5:58 AM PST 5:55 PM PST
Nautical Twilight 5:29 AM PST 6:24 PM PST
Astronomical Twilight 5:00 AM PST 6:53 PM PST
Moon 3:58 AM PST (2/18) 2:39 PM PST (2/18)
Length of Visible Light 11h 57m
Length of Day
11h 07m
Waning Crescent, 10% of the Moon is Illuminated
Feb 18
Waning Crescent
Feb 21
New
Feb 29
First Quarter
Mar 8
Full
Mar 14
Last Quarter

Hourly Weather History & Observations

Time (PST) Temp. Windchill Dew Point Humidity Pressure Visibility Wind Dir Wind Speed Gust Speed Precip Events Conditions
12:56 AM 43.0 °F 41.3 °F 34.0 °F 71% 30.14 in 10.0 mi East 3.5 mph - N/A   Clear
1:56 AM 44.1 °F 39.0 °F 39.9 °F 85% 30.13 in 8.0 mi East 9.2 mph - N/A   Clear
2:56 AM 43.0 °F 38.8 °F 39.9 °F 89% 30.13 in 9.0 mi SE 6.9 mph - N/A   Clear
3:56 AM 39.9 °F - 36.0 °F 86% 30.14 in 10.0 mi Calm Calm - N/A   Clear
4:56 AM 37.0 °F 34.5 °F 34.0 °F 89% 30.14 in 9.0 mi WNW 3.5 mph - N/A   Clear
5:56 AM 37.0 °F - 34.0 °F 89% 30.14 in 4.0 mi Calm Calm - N/A   Scattered Clouds
6:05 AM 37.4 °F - 35.6 °F 93% 30.10 in 4.0 mi Calm Calm - N/A   Mostly Cloudy
6:19 AM 37.4 °F - 37.4 °F 100% 30.10 in 0.2 mi Calm Calm - N/A Fog Fog
6:56 AM 35.1 °F - 35.1 °F 100% 30.17 in 0.2 mi Calm Calm - N/A Fog Fog
7:42 AM 42.8 °F - 42.8 °F 100% 30.12 in 2.0 mi Calm Calm - N/A   Mostly Cloudy
7:49 AM 42.8 °F - 42.8 °F 100% 30.12 in 4.0 mi Calm Calm - N/A   Scattered Clouds
7:56 AM 43.0 °F 41.3 °F 42.1 °F 97% 30.17 in 4.0 mi SE 3.5 mph - N/A   Scattered Clouds
8:56 AM 48.9 °F - 45.0 °F 86% 30.18 in 7.0 mi Calm Calm - N/A   Clear
9:56 AM 57.0 °F - 45.0 °F 64% 30.17 in 10.0 mi Calm Calm - N/A   Clear
10:56 AM 61.0 °F - 44.1 °F 54% 30.14 in 10.0 mi Variable 3.5 mph - N/A   Clear
11:56 AM 66.0 °F - 43.0 °F 43% 30.11 in 10.0 mi Calm Calm - N/A   Clear
12:56 PM 66.0 °F - 44.1 °F 45% 30.07 in 9.0 mi SE 6.9 mph - N/A   Clear
1:56 PM 68.0 °F - 42.1 °F 39% 30.04 in 10.0 mi ESE 5.8 mph - N/A   Clear
2:56 PM 70.0 °F - 46.0 °F 42% 30.01 in 10.0 mi ESE 6.9 mph - N/A   Clear
3:56 PM 71.1 °F - 46.0 °F 41% 29.99 in 10.0 mi South 10.4 mph - N/A   Clear
4:56 PM 66.9 °F - 50.0 °F 54% 29.98 in 10.0 mi SE 8.1 mph - N/A   Clear
5:56 PM 61.0 °F - 46.0 °F 58% 29.98 in 10.0 mi SE 8.1 mph - N/A   Clear
6:56 PM 60.1 °F - 46.0 °F 60% 29.99 in 10.0 mi SSW 5.8 mph - N/A   Clear
7:56 PM 60.1 °F - 42.1 °F 51% 29.99 in 10.0 mi South 5.8 mph - N/A   Clear
8:56 PM 57.0 °F - 43.0 °F 59% 30.00 in 10.0 mi Variable 3.5 mph - N/A   Clear
9:56 PM 60.1 °F - 39.9 °F 47% 30.01 in 10.0 mi West 26.5 mph 34.5 mph N/A   Clear
10:56 PM 57.0 °F - 39.0 °F 51% 29.98 in 10.0 mi WSW 12.7 mph - N/A   Clear
11:56 PM 54.0 °F - 37.9 °F 55% 29.99 in 10.0 mi WSW 12.7 mph - N/A   Clear